Location: Great Falls
(47.5000°N, 111.3000°W)
Time: 21:24:49
(UTC-07:00)

OTV 5 (USA 277) - Visible Passes

Search period start: 23 February 2019 00:00
Search period end: 05 March 2019 00:00
Orbit: 342 x 346 km, 54.5° (Epoch: 17 February)

Date Brightness Start Highest point End Pass type
(mag) Time Alt. Az. Time Alt. Az. Time Alt. Az.
23 Feb ? 19:14:15 10° S 19:15:47 16° SE 19:15:47 16° SE visible
24 Feb ? 19:36:49 10° SW 19:39:16 42° SSE 19:39:16 42° SSE visible
25 Feb ? 20:00:20 10° WSW 20:02:37 49° W 20:02:37 49° W visible
26 Feb ? 18:49:16 10° SW 18:52:01 42° SE 18:54:24 13° ENE visible
26 Feb ? 20:24:20 10° W 20:25:51 23° WNW 20:25:51 23° WNW visible
27 Feb ? 19:12:45 10° WSW 19:15:38 69° NNW 19:17:32 19° NE visible
27 Feb ? 20:48:33 10° WNW 20:48:59 12° WNW 20:48:59 12° WNW visible
28 Feb ? 19:36:45 10° W 19:39:25 33° NNW 19:40:35 23° NNE visible
01 Mar ? 20:00:58 10° WNW 20:03:20 22° N 20:03:34 22° N visible
02 Mar ? 18:49:10 10° W 18:51:51 33° NNW 18:54:32 10° NE visible
02 Mar ? 20:25:07 10° NW 20:26:29 17° NNW 20:26:29 17° NNW visible
03 Mar ? 19:13:22 10° WNW 19:15:45 22° N 19:17:57 11° NE visible
03 Mar ? 20:48:58 10° NW 20:49:23 12° NW 20:49:23 12° NW visible
04 Mar ? 19:37:32 10° NW 19:39:45 20° N 19:40:49 16° NNE visible
